Wind_Speed
21 19 18 17 16 16 16 16 16 16 16 16 17 18 19 19 20 20 20 19 19 19 20 21 21 21 20 20 21 20 21 24 28 27 24 23 22 22 23 25 27 27 27 26 24 23 20 18 16 16 17 19 19 20 23 25 27 28 27 26 25 24
20 18 17 16 16 16 16 16 16 16 15 15 17 18 19 20 20 20 20 19 19 19 19 20 21 21 21 20 21 21 22 24 27 29 26 24 22 21 23 25 27 28 28 27 26 24 22 20 18 17 18 19 20 20 21 23 26 27 27 27 27 26
18 17 16 15 15 15 15 16 16 16 15 16 17 18 19 20 21 20 20 19 19 19 19 20 21 21 21 20 21 22 23 24 26 29 28 25 23 21 22 25 27 28 29 28 27 26 24 21 19 18 18 20 21 21 20 21 23 25 26 27 27 27
15 15 14 14 14 14 15 16 16 16 16 16 17 18 19 20 20 20 19 19 19 19 19 19 20 20 20 20 21 22 23 24 25 28 29 25 23 22 21 24 27 28 29 29 28 26 25 23 21 20 19 19 20 20 20 20 21 23 25 26 27 27
13 13 13 13 14 14 15 15 16 16 16 16 17 18 18 18 19 19 19 19 19 19 18 17 17 18 19 20 20 21 23 24 25 26 26 25 24 24 22 24 26 28 29 29 29 28 26 24 22 21 20 20 20 20 19 19 20 22 23 24 26 27
13 12 13 14 14 15 16 16 17 17 17 16 17 18 17 16 16 17 18 18 18 17 17 16 15 15 17 19 20 21 22 24 25 25 24 24 25 25 24 24 26 28 29 30 30 29 28 25 23 22 22 21 20 19 18 19 20 21 23 23 24 25
13 13 14 15 15 16 17 17 18 18 17 17 17 17 17 16 15 16 16 17 17 16 16 16 15 15 16 17 19 21 22 23 25 25 25 25 26 27 26 25 26 28 30 31 31 31 30 28 25 24 23 22 21 19 18 18 20 21 22 23 24 24
14 14 15 16 17 18 18 18 19 19 18 17 17 17 17 17 16 16 16 16 16 15 15 15 15 15 15 15 17 20 21 23 25 26 26 26 26 28 28 27 26 28 30 31 32 32 32 30 28 26 24 23 22 20 19 19 19 20 22 23 24 24
16 16 17 17 18 19 19 20 20 20 19 18 18 19 19 19 19 18 17 17 16 15 15 14 14 15 15 16 16 18 20 22 24 25 27 27 27 27 29 29 28 28 30 32 33 33 33 32 30 28 25 24 23 22 21 20 19 19 20 22 23 24
17 17 18 18 19 20 21 21 21 22 21 20 20 21 21 20 20 20 19 18 17 16 15 14 14 15 15 16 17 18 19 21 23 25 27 28 28 28 30 31 30 30 30 32 33 33 34 34 32 30 28 25 24 24 23 22 21 20 20 21 22 23
17 17 19 20 21 21 22 22 22 22 22 22 21 22 22 22 21 21 20 19 19 18 17 15 14 15 16 17 18 19 20 21 22 24 26 29 30 30 31 33 33 32 32 32 33 33 34 35 34 32 30 27 26 25 25 25 23 22 21 21 21 22
17 18 19 20 21 22 22 23 22 22 22 22 22 22 23 23 22 22 21 20 20 19 18 16 15 16 16 17 18 19 20 21 23 23 25 28 31 31 31 33 36 35 34 34 34 35 34 35 35 34 32 30 28 27 27 26 25 24 22 21 21 21
18 19 20 21 21 22 23 22 22 22 22 22 22 22 22 23 23 23 22 21 21 21 19 18 17 16 16 18 19 19 20 21 22 22 23 25 29 32 31 33 36 38 37 36 36 36 36 35 36 36 34 32 30 29 28 28 27 26 24 22 22 21
20 20 21 21 21 22 23 22 22 21 21 21 22 22 22 22 23 23 22 22 22 22 21 20 19 17 17 19 20 19 19 20 21 22 23 24 26 30 31 32 34 37 39 40 38 38 38 37 36 37 36 34 32 31 30 29 28 27 26 24 23 22
22 22 22 22 22 22 22 23 22 21 21 21 21 22 22 22 23 24 23 23 23 23 23 21 20 19 18 19 20 19 19 20 21 22 24 24 25 27 30 31 33 34 37 41 41 40 41 39 36 37 37 36 35 33 32 31 30 29 28 26 25 24
24 24 23 23 22 21 22 22 23 22 22 22 22 22 23 23 24 25 25 24 24 25 24 23 22 21 20 20 20 20 20 21 21 22 24 25 25 25 26 28 30 31 33 39 44 44 42 41 38 37 37 37 37 36 35 34 32 31 30 28 27 26
26 25 25 24 22 22 21 21 22 23 23 23 23 23 23 24 25 25 26 25 25 25 25 24 23 23 22 22 21 21 21 22 22 22 23 24 24 25 24 25 27 28 29 34 43 46 44 42 39 37 37 38 38 38 37 36 35 33 32 30 30 29
27 26 26 25 24 23 21 21 22 23 23 24 24 24 24 24 24 25 25 25 25 25 25 25 25 24 23 23 23 22 23 24 23 23 22 21 23 25 25 26 26 27 27 29 36 43 44 42 40 38 37 37 37 38 38 37 36 35 34 33 32 31
27 27 26 25 24 24 23 22 22 23 23 24 24 24 24 24 24 25 25 25 25 24 25 25 26 26 25 25 25 25 26 24 22 22 22 21 22 24 26 26 26 27 28 28 30 36 40 41 41 39 38 38 37 37 37 37 38 37 36 35 34 33
28 27 26 25 25 25 24 23 23 23 23 24 24 25 25 25 25 25 25 25 25 24 24 24 25 26 26 27 26 26 26 23 23 23 22 23 23 24 25 26 26 25 26 26 27 31 33 36 40 41 39 39 38 37 37 37 38 39 38 38 36 35
28 28 27 26 25 25 25 25 24 24 24 24 24 25 25 26 25 25 25 25 25 25 24 24 24 25 26 28 27 27 26 24 24 25 24 24 23 23 25 25 25 24 22 22 23 27 32 33 38 42 41 40 38 38 38 38 38 39 39 40 39 38
29 29 28 27 26 26 26 26 25 24 24 24 24 25 26 26 26 26 25 25 25 25 25 25 25 25 26 27 28 28 27 27 27 27 26 25 23 23 24 24 25 24 22 21 20 22 29 32 36 38 38 39 39 39 39 39 38 38 39 40 41 40
30 29 28 27 27 26 27 27 26 25 25 25 25 25 26 26 26 26 25 25 25 25 25 25 25 25 26 27 28 27 28 28 29 29 28 27 26 26 26 25 25 24 23 22 20 18 21 28 31 33 33 35 38 40 40 40 39 39 40 40 40 40
29 29 28 28 27 27 28 28 28 27 26 25 25 25 26 26 26 26 25 25 24 24 24 25 25 26 26 26 27 27 27 28 29 30 30 29 30 29 29 27 26 25 24 23 22 19 19 22 24 26 28 30 34 38 41 42 41 41 41 39 38 39
29 28 28 28 27 28 28 28 28 28 26 26 26 25 25 26 25 25 25 24 24 23 24 24 25 25 26 26 27 27 26 27 28 30 30 31 31 31 30 30 28 27 26 24 23 21 21 21 21 22 25 26 29 33 36 40 41 42 41 40 38 39
28 28 28 27 27 27 28 28 28 28 27 26 26 26 26 25 25 25 24 24 23 23 23 23 24 24 25 26 26 26 26 26 26 28 29 30 31 31 31 30 29 28 26 25 24 23 23 23 23 24 26 26 26 27 31 36 39 40 41 41 40 40
28 28 28 27 26 26 27 27 27 27 26 25 25 25 25 25 25 25 24 24 22 22 22 23 23 23 24 25 25 26 26 25 25 26 27 29 29 30 30 30 29 28 28 26 26 26 26 26 26 27 28 29 28 27 29 32 36 38 40 41 41 42
27 28 27 27 25 25 25 26 26 25 24 23 23 24 25 26 26 26 25 24 23 22 22 22 23 23 23 24 25 25 25 25 25 25 26 27 28 28 28 28 28 27 27 28 27 28 29 29 29 29 30 32 32 31 30 32 34 36 39 40 42 43
26 26 26 26 24 23 23 23 24 23 21 21 22 23 24 26 26 26 26 25 24 23 21 21 22 22 23 23 24 25 25 25 24 25 25 26 27 27 27 26 26 26 26 27 27 28 29 30 30 30 31 33 34 34 33 34 35 36 38 39 41 43
25 25 25 25 23 22 21 21 22 22 21 20 21 23 24 25 26 26 25 25 25 24 23 22 21 21 22 22 23 24 24 24 24 24 24 25 25 26 26 26 25 25 26 26 27 27 28 29 30 30 30 32 33 34 35 36 36 37 38 39 39 41
25 25 25 25 23 22 21 20 20 21 20 21 21 23 24 25 25 25 25 25 25 25 24 23 22 21 21 21 22 22 23 23 24 24 24 24 25 25 26 26 26 26 26 26 26 27 28 29 30 30 30 30 31 33 33 35 36 37 38 39 38 39
25 25 24 23 23 23 22 21 20 20 20 20 22 23 23 24 25 25 25 25 24 24 24 24 23 22 21 21 21 22 22 23 24 24 24 24 25 25 25 26 26 26 27 27 27 27 28 28 29 30 29 30 30 31 31 32 34 35 36 37 38 38
24 24 23 23 23 23 23 22 20 20 20 20 21 22 23 24 25 26 26 25 24 23 24 24 23 23 22 22 22 22 22 23 23 24 25 25 25 26 26 27 27 27 28 28 28 28 28 29 29 29 29 30 30 30 30 31 32 33 34 35 36 37
24 24 24 24 24 24 24 23 21 20 20 21 21 22 23 24 25 25 25 25 24 23 23 24 23 23 23 23 23 23 23 23 23 24 24 25 25 26 27 28 28 29 29 29 29 29 29 30 30 30 30 30 31 31 31 31 32 32 33 34 35 35
25 25 25 26 26 26 25 24 23 22 22 22 22 22 23 23 24 25 25 25 24 23 23 23 23 23 22 22 23 23 23 23 23 23 24 24 25 26 26 28 29 30 30 31 31 31 30 30 31 31 31 31 32 33 33 33 33 33 34 34 35 35
24 25 26 27 28 27 27 26 25 24 23 23 23 23 23 23 24 24 24 24 23 23 23 23 23 23 22 22 23 23 23 23 23 23 23 24 25 25 26 27 28 29 30 31 32 33 32 32 31 32 32 33 33 33 33 34 35 35 35 36 36 36
21 23 25 27 28 28 28 27 27 26 25 25 25 25 24 24 24 24 24 24 23 23 23 23 23 23 23 23 24 24 24 24 24 24 25 25 26 26 27 28 28 29 30 31 32 33 34 34 34 34 34 34 34 35 35 35 36 36 37 37 37 38
Wind_Direction
274 275 276 278 279 279 277 275 273 271 268 266 266 268 266 266 266 266 265 262 259 256 253 252 253 251 247 246 251 254 249 238 231 225 221 223 225 224 224 221 218 215 213 213 215 215 216 220 224 229 232 233 229 222 220 223 224 225 226 227 228 229
275 276 277 278 277 277 275 273 270 267 265 262 261 262 264 264 263 261 261 258 255 253 252 251 251 250 247 247 249 250 248 243 237 231 224 222 222 224 225 221 218 217 215 214 216 216 215 216 218 223 229 233 232 226 221 222 225 226 227 228 230 233
276 277 277 276 274 273 271 270 267 264 262 259 258 258 260 262 261 259 258 257 255 253 252 250 250 250 250 249 249 248 246 245 242 235 226 221 220 223 226 223 219 218 217 216 218 219 217 215 214 218 225 231 233 230 224 222 225 227 227 229 230 233
274 274 274 271 269 268 267 266 264 263 261 259 258 258 259 260 261 261 259 258 257 257 255 252 251 251 251 249 247 245 245 245 245 238 226 221 220 220 225 226 221 220 220 218 219 221 221 218 214 215 221 228 232 234 229 225 226 229 229 229 230 232
269 266 264 264 264 264 263 263 263 263 262 260 259 258 260 261 264 266 264 261 259 259 260 258 255 253 250 250 247 244 244 244 247 242 227 220 221 219 222 228 225 222 221 221 221 223 224 222 219 217 219 225 230 234 233 229 227 230 232 232 232 233
264 257 255 257 258 260 261 262 263 263 263 261 260 260 262 264 266 268 268 267 264 262 262 262 260 257 252 251 249 246 244 243 245 246 236 224 221 219 220 226 228 225 224 223 223 224 225 224 222 220 220 223 227 231 233 231 229 230 232 234 234 235
262 258 257 256 256 258 259 260 261 262 263 263 263 264 265 266 267 268 270 271 271 268 265 263 262 260 256 251 250 248 245 244 243 244 244 235 225 220 218 223 227 227 226 224 223 224 225 224 222 221 222 224 225 228 230 229 229 230 232 235 236 236
258 256 258 259 259 259 260 260 261 262 263 264 265 266 267 267 267 267 269 271 273 274 271 268 264 261 259 254 249 248 246 245 244 242 244 242 234 225 220 220 224 227 227 226 225 224 225 225 223 220 220 224 226 225 226 228 228 230 232 235 238 238
254 256 257 259 260 260 260 262 263 263 263 264 264 265 266 266 266 267 268 270 272 274 274 272 269 263 260 256 250 249 248 247 246 244 243 242 239 231 224 221 223 226 228 229 227 225 225 226 226 223 219 220 225 226 225 226 227 229 231 234 237 239
250 256 259 260 261 261 262 263 264 264 264 264 264 265 265 265 266 267 268 269 270 272 273 272 268 263 259 256 251 250 251 252 251 249 245 242 239 235 228 225 225 226 228 230 230 227 226 226 227 226 221 218 221 226 226 225 226 227 229 231 234 236
249 254 259 262 263 264 264 264 264 265 265 265 264 264 265 265 265 265 266 267 268 269 270 269 265 262 259 256 253 251 252 255 255 253 248 243 240 237 233 229 228 228 229 230 231 230 228 227 227 227 225 221 219 224 228 228 227 227 228 229 231 233
251 254 258 261 264 265 266 266 266 266 265 265 263 263 263 264 264 264 264 265 266 266 266 266 264 262 260 257 254 252 252 254 256 256 252 245 240 238 236 233 230 229 230 230 231 231 230 229 228 228 227 224 221 222 227 230 231 231 230 230 232 233
257 259 261 263 265 267 269 269 269 267 265 263 263 263 262 263 264 263 263 262 262 263 264 263 261 260 260 259 255 251 252 254 255 257 254 247 241 239 238 237 233 230 230 230 231 231 230 230 229 229 228 226 224 224 226 231 233 234 233 232 233 234
261 262 264 265 267 269 271 271 270 268 266 264 264 264 264 264 264 264 263 262 260 261 262 260 259 258 257 258 257 254 254 255 255 255 254 249 243 239 240 240 237 233 231 230 230 230 231 229 229 230 229 226 225 225 227 230 234 236 237 236 234 235
262 263 264 266 268 269 271 272 272 270 268 266 265 266 266 266 266 266 264 262 260 260 260 258 257 255 254 254 256 256 256 258 256 254 252 250 244 241 241 242 240 239 236 233 231 231 231 230 228 229 230 228 226 226 227 229 232 235 238 239 237 237
264 264 265 266 267 268 270 272 273 272 270 268 267 268 269 269 269 268 266 264 261 260 259 258 255 253 251 251 252 253 256 257 254 251 249 248 244 241 240 242 241 241 241 238 234 231 231 230 228 228 230 229 226 226 227 228 229 232 236 239 239 238
265 264 265 266 267 267 268 270 271 272 271 269 269 269 270 270 270 269 268 266 263 261 260 258 256 253 250 249 249 249 251 252 248 245 247 246 243 240 238 239 238 237 241 240 236 232 229 230 229 228 229 230 228 226 227 228 229 231 234 237 240 240
266 266 267 267 268 269 269 268 267 268 269 269 269 269 268 268 268 268 267 266 264 262 260 257 255 254 250 248 248 246 245 246 246 246 247 247 245 241 238 240 239 236 239 240 236 233 230 230 230 228 228 231 231 230 228 229 229 231 233 235 238 240
267 268 268 269 270 270 270 268 266 266 267 268 268 268 267 267 267 267 267 266 263 261 259 257 254 253 250 246 245 245 245 248 249 250 250 249 248 246 244 244 242 237 238 239 237 235 233 232 232 229 227 229 231 232 231 230 230 230 232 234 236 239
269 269 270 271 271 271 270 269 267 266 266 267 268 268 268 266 265 266 266 265 264 262 259 257 255 252 250 247 243 243 246 249 250 250 249 247 247 249 250 248 245 240 237 238 237 238 238 236 233 230 229 229 230 233 234 232 231 231 231 233 235 238
269 270 271 271 271 271 271 270 268 267 266 266 267 267 267 266 265 264 263 263 263 262 259 256 254 252 250 247 244 242 243 244 244 246 247 245 245 248 251 251 250 247 241 235 231 233 237 237 233 230 229 231 231 233 236 235 234 233 233 232 233 236
268 269 270 270 270 270 270 269 267 266 265 266 266 266 265 265 264 263 262 261 261 260 259 256 253 252 250 248 245 242 240 239 239 240 243 243 243 245 250 253 252 250 247 240 230 227 230 232 232 231 231 234 235 235 237 238 237 235 234 234 233 234
266 267 268 269 269 269 268 268 267 265 264 263 263 263 263 263 263 262 261 260 259 258 257 256 254 252 251 249 248 244 240 240 239 239 239 240 241 241 244 249 249 248 246 242 236 227 224 227 228 229 232 235 237 236 237 238 237 236 236 235 235 235
264 265 266 266 267 268 268 268 268 268 266 264 262 260 260 260 261 261 260 259 258 257 256 255 254 253 251 250 249 246 241 240 240 240 240 238 240 240 239 242 244 245 245 245 240 231 224 225 224 227 232 235 238 240 239 238 237 236 237 236 237 238
263 263 263 264 266 267 268 269 270 270 269 267 265 262 260 258 258 258 259 258 256 255 255 254 254 253 252 251 250 249 245 241 240 241 241 240 240 241 241 241 241 242 246 248 246 237 230 228 227 229 232 234 237 240 240 240 238 236 237 237 237 239
262 261 262 263 264 265 267 268 269 270 269 268 266 265 262 260 258 257 257 257 256 255 254 253 253 253 252 252 252 251 249 245 242 242 243 243 243 243 243 244 242 241 244 247 247 245 239 235 232 232 234 234 235 239 241 241 239 237 238 238 239 240
260 260 261 261 262 263 265 266 267 267 267 267 266 265 264 263 261 259 257 255 255 255 254 253 252 251 251 252 252 252 251 249 246 244 245 247 247 246 246 246 245 242 242 244 245 246 245 241 237 235 237 237 235 237 240 239 239 239 240 241 242 242
259 260 261 262 262 262 263 264 265 265 265 266 266 266 265 264 263 261 259 256 255 253 253 253 252 252 251 250 251 252 252 251 249 246 246 247 249 250 248 248 248 245 243 243 243 244 246 246 243 239 240 241 239 238 238 239 239 240 242 245 246 247
260 261 261 262 261 260 260 262 262 262 263 263 264 265 264 264 264 262 261 259 257 254 252 250 250 251 250 250 250 251 251 251 250 248 247 247 249 250 251 249 248 247 246 245 245 246 247 248 248 245 243 243 244 242 240 240 240 240 242 245 247 249
261 259 258 258 259 258 258 259 260 261 261 260 261 261 261 262 263 264 263 261 260 258 255 251 249 248 248 249 249 250 251 251 251 249 248 247 247 249 251 251 250 249 248 247 246 246 248 250 251 250 248 246 246 245 243 242 241 241 242 243 244 246
259 258 257 258 258 258 257 257 258 261 262 261 260 259 258 258 260 262 263 263 262 261 260 257 254 250 248 247 247 247 248 250 251 251 249 248 247 247 248 250 250 249 248 248 247 246 247 249 251 251 251 250 249 248 247 246 245 244 244 244 243 243
260 261 261 261 261 261 259 256 255 257 259 260 260 259 258 256 257 259 261 262 263 264 264 264 263 260 255 252 249 247 246 247 247 248 249 249 248 248 248 249 249 249 248 248 248 247 247 247 249 250 251 252 252 252 251 250 249 249 248 247 246 243
262 264 266 266 265 263 262 258 256 255 256 257 258 259 258 256 256 256 258 260 262 263 264 266 267 268 266 262 258 254 251 249 248 247 248 249 249 250 250 251 251 252 251 250 250 250 250 250 250 251 252 253 254 254 255 254 253 253 252 251 251 249
262 264 266 267 266 264 263 261 259 257 256 256 257 258 257 256 255 255 256 258 260 261 262 263 265 266 268 268 267 265 261 258 255 253 252 251 251 251 252 252 253 254 255 255 254 253 253 254 254 255 255 255 255 256 256 257 257 257 257 256 255 254
262 263 264 264 264 263 261 259 258 257 255 255 255 255 256 255 255 254 255 257 259 261 261 262 262 263 264 265 267 268 268 267 266 263 261 259 258 256 255 255 255 255 256 256 257 257 256 255 255 256 257 257 257 257 258 258 259 259 260 260 260 259
260 262 263 263 262 260 259 257 255 254 254 254 254 254 253 254 254 254 254 255 257 260 262 263 263 263 263 262 262 263 264 265 266 266 266 265 264 262 261 259 258 257 257 257 257 258 259 259 258 257 257 258 258 258 259 259 260 261 261 262 263 263
256 258 260 261 261 260 258 257 255 255 255 255 255 254 253 252 253 252 252 252 254 257 260 262 264 264 264 263 262 261 261 260 261 261 262 263 264 264 263 263 262 261 260 259 258 258 259 260 260 260 260 260 260 260 260 260 261 262 263 264 265 265
Height
5815 5815 5815 5816 5816 5816 5817 5817 5817 5817 5818 5818 5818 5818 5817 5817 5817 5817 5817 5817 5817 5817 5817 5817 5817 5818 5818 5818 5819 5819 5820 5821 5822 5823 5824 5826 5827 5829 5830 5831 5831 5833 5834 5836 5837 5839 5840 5842 5844 5844 5844 5844 5845 5847 5849 5850 5851 5852 5854 5855 5856 5856
5813 5813 5814 5814 5814 5814 5815 5815 5815 5815 5816 5816 5816 5815 5815 5815 5815 5815 5815 5815 5815 5815 5815 5816 5816 5816 5817 5817 5817 5818 5819 5819 5820 5822 5823 5824 5826 5827 5829 5830 5830 5831 5833 5835 5836 5838 5839 5841 5842 5843 5843 5843 5844 5846 5848 5849 5850 5851 5852 5853 5854 5855
5811 5811 5811 5812 5812 5812 5813 5813 5813 5813 5814 5814 5814 5813 5813 5813 5813 5813 5813 5813 5813 5813 5813 5814 5814 5814 5815 5816 5816 5816 5817 5818 5819 5820 5821 5823 5824 5826 5828 5829 5829 5830 5832 5834 5835 5837 5838 5840 5841 5842 5842 5842 5843 5845 5846 5848 5848 5849 5851 5852 5853 5854
5809 5809 5809 5810 5810 5810 5811 5811 5812 5812 5812 5812 5812 5812 5812 5812 5811 5811 5811 5811 5811 5811 5811 5812 5812 5813 5813 5814 5814 5814 5815 5816 5817 5818 5819 5821 5823 5824 5826 5828 5828 5829 5831 5833 5835 5836 5837 5839 5840 5840 5841 5841 5842 5844 5845 5847 5847 5848 5849 5850 5851 5852
5807 5808 5808 5808 5808 5809 5809 5810 5810 5810 5811 5811 5810 5810 5810 5810 5810 5809 5809 5809 5810 5810 5810 5810 5810 5811 5812 5812 5812 5813 5813 5814 5815 5816 5817 5819 5821 5823 5824 5826 5827 5828 5829 5832 5833 5835 5836 5838 5839 5840 5840 5840 5841 5842 5844 5845 5847 5847 5848 5849 5850 5850
5806 5806 5806 5807 5807 5807 5807 5808 5808 5809 5809 5809 5809 5809 5808 5809 5809 5808 5808 5808 5808 5808 5808 5809 5809 5809 5810 5810 5811 5811 5812 5812 5813 5814 5815 5817 5818 5820 5822 5824 5825 5826 5828 5830 5832 5833 5835 5836 5838 5839 5839 5839 5840 5841 5843 5844 5845 5846 5847 5847 5848 5849
5804 5804 5804 5805 5805 5805 5806 5806 5807 5807 5807 5808 5807 5807 5807 5807 5807 5807 5807 5806 5806 5806 5807 5807 5807 5807 5808 5809 5810 5810 5810 5811 5811 5812 5813 5814 5816 5817 5819 5821 5823 5824 5826 5827 5830 5831 5833 5834 5836 5838 5838 5838 5839 5840 5841 5842 5843 5845 5846 5846 5847 5848
5802 5802 5802 5802 5803 5803 5804 5804 5805 5805 5806 5806 5806 5805 5805 5805 5805 5805 5805 5805 5804 5805 5805 5806 5806 5806 5806 5807 5808 5808 5808 5809 5809 5810 5811 5812 5814 5815 5816 5818 5820 5822 5823 5825 5827 5829 5831 5832 5834 5836 5837 5837 5838 5838 5839 5840 5842 5843 5844 5845 5845 5846
5800 5800 5801 5801 5801 5801 5802 5802 5802 5803 5803 5804 5804 5803 5803 5803 5803 5803 5803 5803 5803 5804 5804 5804 5804 5804 5804 5805 5806 5806 5807 5807 5807 5808 5809 5810 5812 5813 5815 5816 5817 5819 5821 5822 5824 5826 5828 5830 5832 5833 5835 5836 5836 5837 5838 5839 5840 5841 5842 5843 5844 5845
5799 5799 5799 5799 5799 5799 5800 5800 5800 5800 5801 5801 5801 5801 5801 5801 5801 5801 5802 5801 5802 5802 5802 5802 5802 5802 5802 5803 5803 5804 5804 5805 5805 5806 5806 5808 5809 5810 5812 5814 5815 5817 5818 5820 5822 5824 5825 5827 5829 5831 5833 5834 5835 5835 5836 5837 5837 5838 5840 5841 5842 5843
5797 5797 5796 5797 5797 5797 5797 5798 5798 5798 5798 5799 5799 5799 5799 5799 5799 5799 5799 5799 5800 5800 5800 5800 5801 5800 5800 5801 5801 5802 5802 5802 5803 5804 5804 5806 5807 5808 5810 5811 5813 5815 5816 5818 5819 5821 5823 5825 5827 5829 5831 5833 5834 5834 5834 5835 5836 5836 5837 5839 5840 5840
5794 5794 5794 5794 5794 5794 5795 5795 5795 5796 5796 5796 5796 5796 5796 5796 5796 5797 5797 5797 5797 5797 5798 5798 5799 5799 5799 5799 5799 5800 5800 5800 5801 5801 5802 5803 5804 5806 5807 5808 5810 5812 5814 5815 5816 5818 5820 5822 5824 5826 5828 5831 5832 5833 5833 5834 5834 5834 5835 5837 5838 5838
5791 5791 5792 5792 5792 5792 5792 5792 5793 5793 5793 5793 5793 5793 5794 5794 5794 5794 5794 5795 5795 5795 5795 5796 5796 5797 5797 5797 5797 5797 5798 5798 5799 5800 5800 5801 5802 5803 5804 5806 5808 5809 5811 5812 5814 5815 5817 5819 5821 5823 5825 5828 5830 5831 5832 5832 5833 5833 5833 5835 5836 5837
5788 5788 5789 5789 5789 5789 5789 5789 5790 5790 5790 5790 5790 5790 5791 5791 5791 5791 5792 5792 5792 5792 5793 5793 5794 5795 5795 5795 5795 5795 5796 5797 5797 5798 5798 5798 5799 5800 5802 5803 5805 5806 5807 5809 5810 5812 5814 5815 5818 5820 5822 5824 5827 5829 5830 5831 5831 5831 5832 5833 5834 5835
5785 5785 5786 5786 5787 5787 5786 5786 5786 5787 5787 5788 5788 5788 5788 5788 5788 5788 5789 5789 5790 5789 5790 5791 5792 5792 5793 5793 5793 5794 5794 5795 5795 5795 5795 5795 5796 5798 5799 5800 5801 5803 5804 5805 5807 5809 5811 5812 5815 5817 5819 5821 5823 5825 5827 5828 5829 5830 5830 5831 5832 5833
5782 5782 5783 5784 5784 5784 5784 5784 5783 5784 5784 5785 5785 5785 5785 5785 5785 5785 5786 5787 5787 5787 5787 5788 5789 5790 5790 5791 5791 5792 5793 5793 5793 5792 5792 5792 5793 5795 5796 5797 5798 5800 5801 5802 5804 5806 5808 5810 5812 5813 5815 5817 5819 5821 5823 5825 5826 5827 5828 5829 5829 5831
5778 5779 5780 5780 5781 5782 5782 5782 5781 5781 5781 5781 5782 5782 5782 5782 5782 5782 5783 5783 5784 5784 5785 5786 5787 5788 5788 5789 5789 5790 5790 5790 5790 5790 5790 5790 5791 5792 5794 5795 5796 5797 5797 5798 5799 5802 5804 5807 5808 5810 5812 5814 5815 5818 5819 5821 5823 5825 5826 5826 5827 5828
5775 5775 5776 5777 5777 5778 5779 5779 5779 5779 5778 5778 5779 5779 5780 5779 5779 5779 5780 5780 5781 5781 5782 5783 5784 5785 5786 5786 5786 5787 5786 5786 5788 5788 5788 5789 5790 5790 5791 5792 5793 5794 5795 5795 5796 5798 5801 5803 5805 5807 5808 5810 5812 5814 5816 5818 5820 5822 5823 5824 5824 5825
5771 5771 5772 5773 5774 5775 5776 5776 5776 5776 5776 5776 5776 5776 5776 5776 5776 5776 5776 5777 5777 5778 5779 5780 5781 5782 5782 5783 5783 5783 5782 5784 5786 5787 5787 5788 5788 5788 5789 5790 5791 5791 5792 5793 5794 5795 5797 5800 5802 5803 5804 5806 5809 5811 5813 5815 5817 5818 5820 5821 5822 5823
5767 5768 5769 5769 5770 5771 5772 5772 5773 5773 5773 5773 5773 5773 5773 5773 5773 5773 5773 5773 5774 5775 5776 5777 5777 5778 5779 5779 5780 5780 5781 5783 5784 5784 5785 5786 5786 5787 5787 5787 5788 5789 5790 5791 5791 5792 5794 5796 5798 5799 5801 5803 5805 5807 5809 5811 5813 5815 5816 5817 5819 5820
5763 5764 5765 5766 5767 5767 5768 5768 5769 5769 5770 5770 5770 5770 5770 5770 5770 5770 5771 5770 5771 5771 5772 5773 5774 5774 5775 5776 5777 5778 5780 5781 5781 5782 5783 5783 5784 5785 5784 5785 5785 5786 5787 5788 5789 5790 5791 5793 5794 5795 5797 5799 5802 5804 5805 5807 5809 5811 5813 5814 5815 5817
5760 5761 5762 5762 5763 5764 5764 5764 5765 5766 5766 5767 5767 5767 5767 5767 5767 5767 5768 5768 5768 5768 5769 5770 5770 5771 5772 5772 5773 5775 5777 5778 5778 5779 5780 5781 5782 5782 5782 5782 5783 5784 5784 5785 5787 5787 5788 5789 5790 5792 5794 5796 5798 5800 5802 5804 5806 5807 5809 5810 5812 5813
5757 5758 5759 5759 5759 5760 5760 5760 5761 5762 5763 5764 5764 5764 5764 5764 5764 5764 5765 5765 5765 5765 5766 5766 5767 5768 5769 5769 5770 5772 5774 5775 5775 5776 5777 5778 5779 5780 5780 5780 5781 5782 5782 5783 5784 5786 5786 5786 5787 5789 5791 5793 5795 5796 5798 5800 5801 5803 5804 5806 5808 5810
5754 5755 5755 5756 5756 5756 5756 5756 5757 5758 5759 5760 5760 5761 5761 5761 5761 5761 5761 5762 5762 5763 5763 5763 5764 5765 5766 5766 5767 5768 5770 5772 5772 5773 5774 5775 5775 5776 5777 5778 5779 5780 5780 5780 5782 5783 5783 5783 5784 5786 5788 5790 5791 5792 5794 5795 5797 5798 5799 5802 5805 5806
5751 5752 5752 5753 5753 5753 5753 5753 5753 5754 5755 5756 5756 5757 5757 5758 5758 5758 5758 5759 5759 5760 5760 5760 5761 5762 5762 5763 5764 5765 5767 5769 5770 5770 5770 5771 5772 5773 5774 5775 5776 5777 5778 5778 5779 5780 5780 5780 5781 5783 5785 5787 5787 5788 5789 5791 5792 5794 5795 5798 5800 5801
5748 5748 5749 5750 5750 5750 5750 5750 5750 5750 5751 5752 5753 5753 5754 5754 5755 5755 5756 5756 5756 5757 5757 5758 5758 5759 5760 5760 5761 5762 5763 5765 5766 5767 5767 5768 5768 5769 5770 5772 5773 5774 5775 5775 5776 5776 5777 5778 5780 5781 5783 5783 5784 5786 5786 5787 5788 5790 5791 5793 5795 5797
5744 5745 5745 5747 5748 5748 5747 5747 5747 5747 5748 5748 5749 5749 5750 5750 5751 5752 5753 5753 5754 5754 5755 5755 5756 5756 5757 5758 5758 5759 5760 5762 5763 5764 5765 5765 5765 5766 5767 5768 5770 5771 5772 5773 5773 5773 5774 5776 5778 5779 5780 5780 5782 5783 5783 5784 5784 5786 5787 5789 5791 5792
5741 5741 5742 5744 5745 5745 5745 5744 5744 5744 5745 5745 5746 5746 5746 5746 5747 5748 5749 5750 5751 5752 5752 5753 5753 5754 5755 5755 5756 5757 5757 5759 5760 5761 5762 5763 5763 5763 5764 5766 5766 5768 5769 5770 5771 5771 5771 5772 5774 5776 5777 5777 5778 5779 5780 5781 5781 5783 5784 5785 5786 5787
5738 5739 5740 5740 5741 5742 5742 5742 5741 5741 5742 5743 5743 5743 5743 5743 5743 5744 5745 5746 5747 5748 5750 5750 5751 5751 5752 5753 5754 5754 5755 5756 5757 5758 5759 5760 5760 5761 5761 5763 5763 5764 5766 5767 5768 5768 5768 5769 5770 5772 5773 5773 5774 5776 5777 5778 5779 5780 5780 5782 5782 5782
5735 5736 5736 5737 5738 5738 5739 5739 5739 5739 5739 5740 5740 5740 5740 5740 5740 5741 5741 5742 5743 5744 5746 5747 5748 5749 5750 5751 5751 5752 5753 5753 5754 5755 5756 5757 5758 5758 5758 5759 5760 5761 5762 5763 5764 5765 5766 5766 5767 5768 5769 5770 5770 5771 5772 5773 5775 5776 5776 5778 5779 5780
5732 5732 5733 5734 5735 5735 5735 5736 5736 5736 5736 5737 5738 5738 5738 5738 5738 5738 5738 5739 5740 5741 5742 5743 5745 5746 5747 5748 5749 5750 5750 5751 5751 5752 5753 5754 5755 5755 5756 5757 5757 5758 5759 5760 5761 5762 5763 5763 5764 5765 5766 5766 5767 5767 5768 5769 5770 5771 5771 5773 5775 5776
5729 5730 5731 5732 5732 5732 5732 5732 5733 5733 5734 5734 5735 5735 5736 5736 5736 5736 5736 5736 5737 5737 5738 5739 5740 5742 5743 5745 5746 5747 5747 5748 5749 5749 5750 5751 5752 5753 5753 5754 5755 5756 5756 5757 5758 5759 5760 5761 5761 5761 5762 5763 5763 5764 5764 5765 5766 5767 5767 5768 5769 5771
5727 5728 5728 5729 5729 5729 5729 5730 5730 5730 5731 5731 5732 5733 5733 5734 5734 5734 5734 5734 5735 5735 5736 5736 5737 5738 5739 5740 5742 5743 5744 5745 5746 5746 5747 5748 5749 5749 5750 5751 5752 5752 5753 5754 5755 5756 5756 5757 5757 5758 5759 5759 5760 5760 5761 5762 5762 5763 5763 5764 5765 5766
5726 5726 5726 5726 5726 5726 5727 5727 5728 5728 5728 5728 5729 5730 5731 5731 5731 5732 5732 5732 5733 5733 5733 5734 5734 5735 5736 5736 5737 5738 5740 5741 5742 5743 5744 5745 5746 5746 5747 5747 5748 5749 5749 5750 5751 5752 5753 5753 5754 5754 5755 5755 5756 5756 5757 5758 5758 5759 5760 5760 5761 5762
5724 5724 5723 5723 5723 5723 5724 5724 5725 5725 5725 5726 5726 5727 5728 5728 5729 5729 5729 5730 5730 5730 5731 5731 5732 5732 5733 5734 5734 5735 5736 5737 5738 5739 5740 5741 5742 5743 5743 5744 5744 5745 5745 5746 5747 5747 5748 5749 5750 5750 5751 5752 5752 5752 5753 5754 5754 5755 5755 5756 5757 5758
5721 5721 5721 5720 5720 5720 5721 5721 5721 5722 5722 5723 5723 5724 5724 5725 5725 5726 5727 5727 5728 5728 5728 5728 5729 5729 5730 5731 5732 5733 5733 5734 5735 5735 5736 5737 5738 5739 5740 5740 5741 5741 5742 5742 5743 5743 5744 5745 5746 5746 5747 5747 5748 5748 5749 5750 5750 5751 5751 5751 5752 5752
5719 5718 5718 5717 5717 5718 5718 5718 5718 5718 5719 5720 5720 5720 5721 5721 5722 5723 5723 5724 5725 5725 5725 5725 5726 5726 5727 5728 5729 5730 5731 5732 5732 5733 5734 5734 5735 5735 5736 5737 5737 5738 5738 5739 5739 5740 5740 5740 5741 5741 5742 5742 5743 5743 5744 5745 5745 5746 5746 5747 5747 5747